CW8262 Weather Reports


Display with metric or nautical units.
time (UTC)temp
F
wind
direction
speed
MPH
gust
MPH
rain 1hr
in
rain 24hr
in
rain mn
in
humidity
%
barometer
mb
20180815130704 39 22 0.0 0.0 0.00 0.03 0.00 11 1012.7
20180815125703 39 68 0.0 0.0 0.00 0.06 0.00 20 1012.6
20180815124703 39 68 0.0 0.0 0.00 0.08 0.00 29 1012.6
20180815123703 39 349 0.0 0.0 0.00 0.08 0.00 26 1012.7
20180815123204 39 135 0.0 0.0 0.00 0.08 0.00 26 1012.7
20180815122703 40 68 0.0 0.0 0.00 0.11 0.00 27 1012.7
20180815122203 40 68 0.0 0.0 0.00 0.11 0.00 28 1012.4
20180815121703 40 68 0.0 0.0 0.00 0.14 0.00 29 1012.4
20180815121203 40 68 0.0 0.0 0.00 0.19 0.00 29 1012.4
20180815120704 40 48 0.0 0.0 0.00 0.19 0.00 30 1012.4
20180815120203 40 89 0.0 0.0 0.00 0.22 0.00 32 1012.6
20180815115703 40 90 0.0 0.0 0.00 0.25 0.25 33 1012.6
20180815115203 40 90 0.0 0.0 0.00 0.28 0.25 35 1012.6
20180815114704 40 90 0.0 0.0 0.00 0.30 0.25 37 1012.6
20180815114203 40 68 0.0 0.0 0.00 0.39 0.25 40 1012.6
20180815113704 41 68 0.0 0.0 0.00 0.41 0.25 42 1012.6
20180815113204 41 296 0.0 0.0 0.00 0.41 0.25 40 1012.6
20180815112703 41 331 0.0 0.0 0.00 0.41 0.25 39 1012.6
20180815111703 41 90 0.0 0.0 0.00 0.41 0.25 42 1012.3
20180815110703 42 68 0.0 0.0 0.00 0.41 0.25 45 1012.3
20180815105203 42 112 0.0 0.0 0.00 0.41 0.25 50 1012.1
20180815104703 42 109 0.0 0.0 0.00 0.41 0.25 49 1012.1
20180815104203 43 22 0.0 0.0 0.00 0.41 0.25 50 1012.1
20180815103203 43 45 1.0 1.0 0.00 0.41 0.25 50 1012.1
20180815102703 43 45 0.0 2.0 0.00 0.41 0.25 50 1012.1
20180815102203 44 45 0.0 0.0 0.00 0.41 0.25 51 1012.1
20180815101703 44 112 0.0 0.0 0.00 0.41 0.25 50 1012.1
20180815101203 44 45 0.0 0.0 0.00 0.41 0.25 51 1012.1
20180815100703 44 18 1.0 2.0 0.00 0.41 0.25 50 1012.1
20180815100203 44 270 2.0 2.0 0.00 0.41 0.25 49 1011.9
20180815095703 44 248 4.0 6.0 0.00 0.41 0.25 49 1011.9
20180815095204 44 248 5.0 6.0 0.00 0.41 0.25 51 1011.9
20180815094703 44 248 5.0 6.0 0.00 0.41 0.25 53 1011.9
20180815092703 45 292 3.0 3.0 0.00 0.41 0.25 58 1012.2
20180815091703 46 292 1.0 3.0 0.00 0.41 0.25 59 1011.8
20180815090203 47 136 1.0 1.0 0.00 0.41 0.25 59 1011.8
20180815085703 47 224 1.0 2.0 0.00 0.44 0.25 59 1011.8
20180815085203 47 180 2.0 3.0 0.00 0.44 0.25 59 1011.8
20180815084703 47 158 3.0 5.0 0.00 0.44 0.25 59 1011.8
20180815084203 47 159 3.0 5.0 0.00 0.44 0.25 58 1011.3
20180815083703 47 158 3.0 8.0 0.00 0.44 0.25 58 1011.3
20180815083204 48 200 5.0 8.0 0.00 0.44 0.25 58 1011.3
20180815082204 48 183 5.0 8.0 0.00 0.44 0.25 57 1011.1
20180815081704 48 202 3.0 7.0 0.00 0.44 0.25 56 1011.1
20180815081203 48 202 2.0 5.0 0.00 0.44 0.25 57 1011.1
20180815080703 48 22 3.0 5.0 0.00 0.44 0.25 58 1011.1
20180815080203 48 201 3.0 6.0 0.00 0.44 0.25 58 1011.2
20180815075704 48 248 3.0 5.0 0.00 0.44 0.25 59 1011.2
20180815073703 49 270 6.0 8.0 0.00 0.44 0.25 59 1011.1
20180815073203 49 183 6.0 8.0 0.00 0.44 0.25 60 1011.1
20180815072703 49 248 6.0 7.0 0.00 0.44 0.25 60 1011.1
20180815071203 49 225 6.0 9.0 0.00 0.44 0.25 60 1010.9
20180815070703 49 248 6.0 7.0 0.00 0.47 0.25 59 1010.9
20180815070203 49 240 6.0 8.0 0.00 0.50 0.25 59 1010.6
20180815065703 49 248 6.0 12.0 0.00 0.53 0.25 58 1010.6
20180815064704 49 225 6.0 9.0 0.00 0.53 0.25 59 1010.6
20180815063703 50 248 6.0 7.0 0.00 0.56 0.25 60 1010.3
20180815063203 50 248 6.0 7.0 0.00 0.56 0.25 61 1010.3
20180815062703 50 225 6.0 7.0 0.00 0.56 0.25 61 1010.3
20180815062203 51 248 6.0 9.0 0.00 0.58 0.25 61 1010.0
20180815061703 51 248 6.0 7.0 0.00 0.61 0.25 62 1010.0
20180815061203 51 245 7.0 8.0 0.00 0.61 0.25 63 1010.0
20180815060703 51 248 7.0 8.0 0.00 0.61 0.25 63 1010.0
20180815060203 51 248 7.0 9.0 0.00 0.61 0.25 64 1010.4
20180815055703 51 248 7.0 9.0 0.00 0.61 0.25 64 1010.4
20180815055203 52 248 7.0 9.0 0.00 0.61 0.25 65 1010.4
20180815054704 52 248 7.0 9.0 0.00 0.61 0.25 65 1010.4
20180815054203 52 248 7.0 10.0 0.00 0.61 0.25 65 1010.4
20180815053203 53 248 6.0 9.0 0.00 0.61 0.25 66 1010.4
20180815052703 54 248 6.0 8.0 0.00 0.61 0.25 66 1010.4
20180815050704 55 248 8.0 10.0 0.00 0.61 0.25 66 1010.1
20180815050203 56 249 9.0 15.0 0.00 0.61 0.25 66 1009.8
20180815045204 56 248 9.0 15.0 0.00 0.61 0.25 66 1009.8
20180815044703 56 248 9.0 13.0 0.00 0.61 0.25 66 1009.8
20180815044203 57 270 9.0 13.0 0.00 0.61 0.25 65 1009.3
20180815042703 57 234 9.0 14.0 0.00 0.61 0.25 66 1009.3
20180815042204 57 248 8.0 13.0 0.00 0.61 0.25 66 1008.8
20180815041204 57 225 8.0 8.0 0.00 0.67 0.25 66 1008.8
20180815040704 57 248 9.0 10.0 0.00 0.67 0.25 66 1008.8
20180815035703 57 253 8.0 10.0 0.00 0.69 0.25 66 1008.3
20180815035203 57 202 8.0 12.0 0.00 0.69 0.25 66 1008.3
20180815034703 57 225 8.0 12.0 0.00 0.69 0.25 66 1008.3
20180815033703 57 239 7.0 12.0 0.00 0.72 0.25 66 1007.9
20180815032703 57 225 7.0 10.0 0.00 0.72 0.25 66 1007.9
20180815032203 57 270 8.0 10.0 0.00 0.72 0.25 66 1007.4
20180815031703 57 219 8.0 9.0 0.00 0.72 0.25 66 1007.4
20180815031203 57 225 8.0 15.0 0.00 0.72 0.25 66 1007.4
20180815025704 56 248 10.0 20.0 0.00 0.72 0.25 66 1007.3
20180815024704 56 255 8.0 12.0 0.00 0.75 0.25 66 1007.3
20180815024203 56 248 9.0 16.0 0.00 0.75 0.25 66 1006.8
20180815023703 57 241 9.0 16.0 0.00 0.75 0.25 66 1006.8
20180815023203 58 180 8.0 9.0 0.00 0.75 0.25 66 1006.8
20180815022204 57 248 7.0 9.0 0.00 0.78 0.25 65 1006.6
20180815021204 57 202 9.0 12.0 0.00 0.83 0.25 65 1006.6
20180815020704 57 254 8.0 14.0 0.00 0.86 0.25 65 1006.6
20180815020203 57 248 8.0 14.0 0.00 0.89 0.25 66 1006.3
20180815015704 57 222 9.0 13.0 0.00 0.89 0.25 65 1006.3
20180815015204 57 248 9.0 13.0 0.00 0.97 0.25 66 1006.3
20180815013704 56 202 9.0 13.0 0.00 1.02 0.25 66 1006.3
20180815013203 56 202 10.0 18.0 0.00 1.05 0.25 65 1006.3
20180815012704 56 228 9.0 17.0 0.00 1.08 0.25 65 1006.3
20180815012203 56 248 9.0 17.0 0.00 1.11 0.25 66 1006.0
20180815011703 56 202 9.0 14.0 0.00 1.11 0.25 64 1006.0
20180815010703 56 248 9.0 12.0 0.00 1.11 0.25 65 1006.0
20180815010203 56 225 9.0 12.0 0.00 1.11 0.25 65 1005.9
20180815005703 56 205 9.0 12.0 0.00 1.11 0.25 65 1005.9
20180815005204 56 180 8.0 13.0 0.00 1.11 0.25 63 1005.9
20180815004704 55 223 8.0 14.0 0.00 1.11 0.25 62 1005.9
20180815003204 54 202 7.0 10.0 0.00 1.11 0.25 64 1005.8
20180815002703 54 202 9.0 8.0 0.00 1.13 0.25 65 1005.8
20180815002204 54 225 10.0 16.0 0.00 1.13 0.25 65 1005.8
20180815001204 55 248 9.0 15.0 0.00 1.13 0.25 66 1005.8
20180815000706 56 248 10.0 15.0 0.00 1.13 0.25 66 1005.8
20180815000203 56 270 12.0 15.0 0.00 1.13 0.25 66 1005.3
20180814235704 56 234 10.0 14.0 0.00 1.16 0.25 66 1005.3
20180814235203 56 225 10.0 12.0 0.00 1.16 0.25 62 1005.3
20180814234703 56 248 10.0 14.0 0.00 1.16 0.25 66 1005.3
20180814234203 56 248 10.0 14.0 0.00 1.16 0.25 66 1005.2
20180814233704 56 256 11.0 15.0 0.00 1.16 0.25 65 1005.2
20180814232703 56 221 11.0 17.0 0.00 1.16 0.25 66 1005.2
20180814231704 56 248 10.0 13.0 0.00 1.16 0.25 61 1005.3
20180814231204 55 248 10.0 16.0 0.00 1.16 0.25 64 1005.3
20180814230703 55 252 9.0 14.0 0.00 1.16 0.25 64 1005.3
20180814230203 55 248 10.0 16.0 0.00 1.16 0.25 61 1005.1
20180814225704 55 225 9.0 16.0 0.00 1.19 0.25 61 1005.1
20180814225203 55 225 9.0 20.0 0.00 1.19 0.25 58 1005.1
20180814224203 54 270 9.0 13.0 0.00 1.19 0.25 48 1005.1
20180814223704 53 245 9.0 12.0 0.00 1.19 0.25 44 1005.1
20180814222204 52 248 8.0 12.0 0.00 1.24 0.25 46 1004.8
20180814221203 52 270 7.0 10.0 0.00 1.24 0.25 38 1004.8
20180814220703 52 268 7.0 9.0 0.00 1.24 0.25 31 1004.8
20180814220203 51 270 7.0 9.0 0.00 1.24 0.25 22 1004.6
20180814215703 51 270 7.0 9.0 0.00 1.24 0.25 17 1004.6
20180814215203 51 292 7.0 9.0 0.00 1.27 0.25 16 1004.6
20180814214704 50 292 7.0 9.0 0.00 1.27 0.25 18 1004.6
20180814214204 50 270 6.0 7.0 0.00 1.27 0.25 12 1004.3
20180814213704 50 273 6.0 9.0 0.00 1.27 0.25 9 1004.3
20180814213203 49 270 6.0 9.0 0.00 1.27 0.25 2 1004.3
20180814212704 49 272 7.0 6.0 0.00 1.27 0.25 99 1004.3
20180814212203 49 290 8.0 10.0 0.00 1.27 0.25 99 1004.1
20180814211704 49 287 9.0 9.0 0.00 1.27 0.25 99 1004.1
20180814205709 47 315 9.0 10.0 0.00 1.27 0.25 99 1004.1
20180814204704 46 296 7.0 10.0 0.00 1.27 0.25 99 1004.1
20180814204204 46 292 7.0 7.0 0.00 1.27 0.25 1 1003.6
20180814203703 46 311 7.0 8.0 0.00 1.27 0.25 1 1003.6
20180814203203 46 315 7.0 9.0 0.00 1.27 0.25 1 1003.6
20180814202704 46 311 7.0 9.0 0.00 1.27 0.25 1 1003.6
20180814202204 46 292 8.0 10.0 0.00 1.27 0.25 1 1003.3
20180814201704 46 311 8.0 10.0 0.00 1.27 0.25 1 1003.3
20180814201204 46 270 7.0 9.0 0.00 1.27 0.25 1 1003.3
20180814200704 45 270 6.0 9.0 0.00 1.27 0.25 1 1003.3
20180814194704 45 270 6.0 8.0 0.00 1.27 0.25 6 1002.8
20180814193704 45 270 3.0 6.0 0.00 1.27 0.25 8 1002.4
20180814192704 45 315 0.0 3.0 0.00 1.27 0.25 13 1002.4
20180814192204 45 337 0.0 1.0 0.00 1.27 0.25 16 1001.8
20180814191703 45 0 2.0 1.0 0.00 1.27 0.25 16 1001.8
20180814191204 45 316 3.0 5.0 0.00 1.27 0.25 16 1001.8
20180814190204 45 313 3.0 5.0 0.00 1.27 0.25 16 1001.4
20180814185703 45 292 5.0 5.0 0.00 1.27 0.25 17 1001.4
20180814185203 45 270 6.0 6.0 0.00 1.27 0.25 15 1001.4
20180814184703 45 248 6.0 7.0 0.00 1.27 0.25 13 1001.4
20180814184204 45 270 6.0 7.0 0.00 1.27 0.25 12 1001.1
20180814182704 45 270 6.0 8.0 0.03 1.27 0.25 6 1001.1
20180814182204 45 250 6.0 9.0 0.03 1.27 0.25 2 1000.9
20180814181704 45 252 7.0 9.0 0.03 1.27 0.25 99 1000.9
20180814180703 45 265 5.0 12.0 0.03 1.27 0.25 99 1000.9
20180814180204 45 225 6.0 8.0 0.03 1.27 0.25 99 1000.8
20180814175203 45 292 7.0 10.0 0.03 1.27 0.25 99 1000.8
20180814174704 45 249 8.0 10.0 0.03 1.27 0.25 99 1000.8
20180814174203 45 270 8.0 12.0 0.03 1.27 0.25 99 1000.7
20180814173704 45 313 8.0 9.0 0.03 1.27 0.25 99 1000.7
20180814173203 45 292 8.0 12.0 0.00 1.24 0.22 99 1000.7
20180814172703 45 270 9.0 12.0 0.00 1.24 0.22 99 1000.7
20180814172204 45 270 9.0 10.0 0.00 1.24 0.22 99 1000.9
20180814171703 45 271 7.0 10.0 0.00 1.24 0.22 99 1000.9
20180814170703 45 269 7.0 12.0 0.00 1.24 0.22 99 1000.9
20180814170204 45 270 6.0 8.0 0.00 1.27 0.22 99 1000.4
20180814165703 45 292 7.0 8.0 0.00 1.27 0.22 99 1000.4
20180814165204 45 292 7.0 9.0 0.00 1.27 0.22 99 1000.4
20180814164703 45 271 7.0 9.0 0.00 1.27 0.22 99 1000.4
20180814164203 45 270 7.0 10.0 0.00 1.27 0.22 99 1000.3
20180814163204 45 270 7.0 8.0 0.00 1.27 0.22 99 1000.3
20180814162703 45 270 7.0 8.0 0.00 1.30 0.22 99 1000.3
20180814162204 45 315 7.0 8.0 0.00 1.36 0.22 99 1000.4
20180814161703 45 292 7.0 9.0 0.00 1.36 0.22 99 1000.4
20180814161203 45 293 7.0 9.0 0.00 1.41 0.22 99 1000.4
20180814160204 45 314 7.0 9.0 0.00 1.52 0.22 99 1000.3
20180814155704 45 315 7.0 10.0 0.00 1.55 0.22 99 1000.3
20180814155203 45 314 7.0 8.0 0.00 1.63 0.22 99 1000.3
20180814154703 45 292 8.0 10.0 0.00 1.63 0.22 99 1000.3
20180814154204 46 273 7.0 10.0 0.00 1.69 0.22 99 1000.4
20180814153704 46 68 7.0 10.0 0.00 1.72 0.22 99 1000.4
20180814153203 46 313 7.0 10.0 0.00 1.77 0.22 99 1000.4
20180814151703 46 315 7.0 9.0 0.00 1.83 0.22 99 1000.4
20180814150703 46 270 6.0 9.0 0.00 1.91 0.22 99 1000.4
20180814150203 46 312 7.0 10.0 0.00 1.94 0.22 99 1000.4
20180814145704 46 270 7.0 9.0 0.00 1.96 0.22 99 1000.4
20180814144203 46 290 7.0 9.0 0.00 2.16 0.22 99 1000.5
20180814143203 46 270 8.0 9.0 0.00 2.21 0.22 99 1000.5
20180814142704 46 292 8.0 12.0 0.00 2.24 0.22 99 1000.5
20180814141203 46 275 7.0 10.0 0.00 2.30 0.22 99 1000.5
20180814140203 46 270 8.0 12.0 0.00 2.35 0.22 99 1000.3
20180814135204 46 248 9.0 10.0 0.06 2.35 0.22 99 1000.3
20180814134703 46 250 9.0 12.0 0.06 2.35 0.22 99 1000.3
20180814133704 46 314 9.0 10.0 0.06 2.35 0.22 99 1000.3
20180814131704 46 338 7.0 10.0 0.11 2.35 0.22 99 1000.1
20180814131204 46 270 6.0 9.0 0.17 2.35 0.22 99 1000.1